Location: Unspecified
(0.0000°N, 0.0000°E)
Time: 09:48:03
(UTC+02:00)

BREEZE-M DEB (TANK) - Visible Passes

Search period start: 01 August 2015 00:00
Search period end: 11 August 2015 00:00
Orbit: 357 x 16338 km, 49.5° (Epoch: 31 July)

Date Brightness Start Highest point End Pass type
(mag) Time Alt. Az. Time Alt. Az. Time Alt. Az.
01 Aug 8.6 18:27:30 10° NNW 19:07:11 69° ENE 21:48:58 10° SSE visible
02 Aug 7.9 00:16:07 10° W 03:04:11 15° SSW 03:24:42 10° SSE visible
02 Aug 8.9 19:11:20 10° NNW 19:59:15 87° ENE 22:38:56 10° SSE visible
03 Aug 7.6 03:35:42 10° SSW 04:03:13 13° S 04:14:14 10° SSE visible
03 Aug 8.8 19:55:58 10° NW 20:56:16 75° SW 23:27:33 10° SSE visible
04 Aug 7.1 04:38:42 10° SSW 04:55:21 15° S 05:03:22 10° SE visible
04 Aug 8.7 20:41:44 10° NW 22:01:45 57° SW 00:15:25 10° SSE visible
05 Aug 6.6 05:28:37 10° SSW 05:44:04 20° SSE 05:50:23 10° ESE visible
05 Aug 8.5 21:29:22 10° WNW 23:21:34 40° SW 01:03:02 10° SSE visible
06 Aug 5.5 06:16:10 10° SSW 06:30:51 31° SSE 06:35:41 10° E visible
06 Aug 8.2 22:20:39 10° WNW 00:54:19 25° SSW 01:50:53 10° SSE visible
07 Aug 4.0 07:03:12 10° SSW 07:16:04 59° SE 07:19:49 10° NE visible
07 Aug 8.4 17:41:50 10° NNW 18:16:48 65° ENE 20:58:22 10° SSE visible
07 Aug 8.0 23:21:32 10° W 02:13:18 17° SSW 02:39:35 10° SSE visible
08 Aug 8.7 18:25:24 10° NNW 19:07:12 83° ENE 21:49:28 10° SSE visible
09 Aug 7.6 02:21:26 10° SW 03:15:05 15° S 03:29:13 10° SSE visible
09 Aug 8.9 19:09:43 10° NW 20:01:51 79° SW 22:38:58 10° SSE visible
10 Aug 7.1 03:44:56 10° SSW 04:08:27 17° S 04:18:06 10° SE visible
10 Aug 8.7 19:55:04 10° NW 21:03:53 61° SW 23:27:36 10° SSE visible
